Location: ??
(34.9170°N, 135.5016°E)
Time: 18:05:56
(UTC+00:00)

METEOR-M - Pass Details

Date: 29 October 2020
Orbit: 815 x 820 km, 98.5° (Epoch: 01 December)

Event Time Altitude Azimuth Distance (km) Brightness Sun altitude
Rises 20:11:36 0° 5° (N) 3,349 7.3 -13.9°
Reaches altitude 10° 20:14:02 10° 359° (N) 2,412 6.5 -13.4°
Maximum altitude 20:19:05 45° 288° (WNW) 1,099 4.4 -12.4°
Drops below altitude 10° 20:24:07 10° 217° (SW) 2,398 6.3 -11.4°
Sets 20:26:32 0° 211° (SSW) 3,326 7.1 -10.9°
